Flag for Japan Weather past 2 weeks in Fukuoka, Japan

Now
95 °F

Partly sunny.


Feels Like: 105 °F
Forecast: 77 / 83 °F
Wind: 14 mph from Southwest

Location: Fukuoka Airport

Current Time: Jul 26, 2014 at 2:49:13 PM

Latest Report: Jul 26, 2014 at 2:30 PM


Visibility: N/A

Pressure: 29.83 "Hg

Humidity: 50%

Dew point: 73 °F

Location of FukuokaLocation

Historic Weather in Fukuoka — Graph

°F

Fukuoka temperature yesterday

Maximum temperature yesterday: 91 °F (at 1:30 PM)
Minimum temperature yesterday: 82 °F (at 12:00 AM)
Average temperature yesterday: 86 °F

Past Weeks' High & Low Weather Summary

 TemperatureHumidityPressure
High93 °F (Jul 26, 12:00 PM)94% (Jul 13, 1:00 AM)29.95 "Hg (Jul 13, 1:00 AM)
Low66 °F (Jul 12, 6:30 PM)31% (Jul 11, 2:30 PM)29.56 "Hg (Jul 11, 1:00 PM)
Average81 °F76%29.80 "Hg
* Reported Jul 11 1:00 PM — Jul 26 1:30 PM, Fukuoka, Weather by CustomWeather, © 2014

Note: Actual official high and low records may vary slightly from our data, if they occured in-between our weather recording intervals... More about our weather records

Advertising

Fukuoka weather history for previous 24 hours

 ConditionsComfort  
Time TempWeatherWind HumidityBarometerVisibility
1:30 PM
Jul 26
93 °FPartly sunny.13 mph53%29.83 "HgN/A
1:00 PM93 °FPartly sunny.13 mph53%29.83 "HgN/A
12:30 PM93 °FScattered clouds.12 mph53%29.83 "HgN/A
12:00 PM93 °FScattered clouds.14 mph53%29.83 "HgN/A
11:30 AM90 °FScattered clouds.10 mph63%29.86 "HgN/A
11:00 AM90 °FPartly sunny.8 mph63%29.86 "HgN/A
10:30 AM91 °FPartly sunny.9 mph63%29.86 "HgN/A
10:00 AM90 °FPartly sunny.7 mph63%29.86 "HgN/A
9:30 AM86 °FPartly sunny.3 mph75%29.86 "HgN/A
9:00 AM84 °FPartly sunny.2 mph79%29.86 "HgN/A
8:30 AM82 °FSprinkles. Broken clouds.5 mph84%29.86 "HgN/A
8:00 AM82 °FSprinkles. Broken clouds.7 mph84%29.86 "HgN/A
7:30 AM82 °FBroken clouds.12 mph84%29.86 "HgN/A
7:00 AM82 °FScattered showers. Broken clouds.12 mph84%29.86 "HgN/A
6:30 AM82 °FLight rain. Broken clouds.13 mph79%29.86 "HgN/A
6:00 AM82 °FScattered showers. Partly sunny.14 mph84%29.86 "HgN/A
5:30 AM82 °FLight rain. Partly sunny.14 mph79%29.83 "HgN/A
5:00 AM82 °FPassing clouds.17 mph79%29.83 "HgN/A
4:30 AM82 °FPassing clouds.17 mph79%29.83 "HgN/A
4:00 AM82 °FLight rain. Passing clouds.14 mph79%29.83 "HgN/A
3:30 AM82 °FPassing clouds.13 mph84%29.83 "HgN/A
3:00 AM82 °FPassing clouds.12 mph84%29.83 "HgN/A
2:30 AM82 °FPassing clouds.12 mph79%29.83 "HgN/A
2:00 AM82 °FPassing clouds.10 mph79%29.86 "HgN/A
1:30 AM82 °FPassing clouds.12 mph79%29.86 "HgN/A
1:00 AM82 °FPassing clouds.12 mph79%29.86 "HgN/A
12:30 AM82 °FPassing clouds.12 mph84%29.86 "HgN/A
12:00 AM82 °FPassing clouds.13 mph84%29.86 "HgN/A
11:30 PM
Jul 25
82 °FPassing clouds.13 mph79%29.86 "HgN/A
11:00 PM82 °FPassing clouds.9 mph79%29.86 "HgN/A
10:30 PM84 °FPassing clouds.12 mph70%29.86 "HgN/A
10:00 PM84 °FPassing clouds.10 mph74%29.86 "HgN/A
9:30 PM86 °FPassing clouds.9 mph70%29.86 "HgN/A
9:00 PM86 °FPassing clouds.8 mph70%29.86 "HgN/A
8:30 PM86 °FPassing clouds.9 mph66%29.86 "HgN/A
8:00 PM88 °FPassing clouds.10 mph62%29.83 "HgN/A
7:30 PM88 °FPassing clouds.13 mph66%29.83 "HgN/A
7:00 PM90 °FScattered clouds.12 mph63%29.83 "HgN/A
6:30 PM90 °FScattered clouds.14 mph63%29.80 "HgN/A
6:00 PM91 °FScattered clouds.13 mph59%29.80 "HgN/A
5:30 PM91 °FBroken clouds.10 mph59%29.80 "HgN/A
5:00 PM91 °FBroken clouds.12 mph59%29.80 "HgN/A
4:30 PM90 °FBroken clouds.5 mph67%29.80 "HgN/A
4:00 PM91 °FBroken clouds.10 mph63%29.80 "HgN/A
3:30 PM91 °FPartly sunny.8 mph63%29.80 "HgN/A
3:00 PM86 °FBroken clouds.7 mph79%29.83 "HgN/A
2:30 PM84 °FSprinkles. Partly sunny.14 mph84%29.83 "HgN/A
2:00 PM91 °FPartly sunny.18 mph59%29.80 "HgN/A
Weather by CustomWeather, © 2014

See weather overviewHow to use our weather pages